TimePST,TemperatureF,Dew PointF,Humidity,Sea Level PressureIn,VisibilityMPH,Wind Direction,Wind SpeedMPH,Gust SpeedMPH,PrecipitationIn,Events,Conditions,WindDirDegrees,DateUTC
12:53 AM,48.9,44.1,83,29.99,10.0,Calm,Calm,-,0.01,,Overcast,0,2012-12-15 08:53:00
1:53 AM,48.9,44.1,83,29.97,10.0,NNE,3.5,-,N/A,,Overcast,30,2012-12-15 09:53:00
2:53 AM,48.9,43.0,80,29.98,10.0,NNW,4.6,-,N/A,,Overcast,340,2012-12-15 10:53:00
3:53 AM,50.0,43.0,77,29.99,10.0,North,4.6,-,N/A,,Overcast,350,2012-12-15 11:53:00
4:53 AM,50.0,44.1,80,29.99,10.0,NNE,3.5,-,N/A,,Overcast,20,2012-12-15 12:53:00
5:34 AM,50.0,42.8,76,30.01,10.0,NNW,4.6,-,N/A,,Overcast,340,2012-12-15 13:34:00
5:46 AM,48.2,44.6,87,30.01,9.0,NNW,4.6,-,0.00,Rain,Light Rain,340,2012-12-15 13:46:00
5:53 AM,48.9,44.1,83,30.01,9.0,NNW,3.5,-,0.00,Rain,Light Rain,340,2012-12-15 13:53:00
6:53 AM,50.0,44.1,80,30.02,10.0,NNE,4.6,-,0.00,,Scattered Clouds,20,2012-12-15 14:53:00
7:53 AM,50.0,43.0,77,30.03,10.0,Calm,Calm,-,N/A,,Scattered Clouds,0,2012-12-15 15:53:00
8:53 AM,53.1,41.0,64,30.04,10.0,North,4.6,-,N/A,,Partly Cloudy,360,2012-12-15 16:53:00
9:53 AM,54.0,39.9,59,30.06,10.0,NW,4.6,-,N/A,,Partly Cloudy,320,2012-12-15 17:53:00
10:53 AM,55.0,39.0,55,30.05,10.0,North,6.9,-,N/A,,Scattered Clouds,350,2012-12-15 18:53:00
11:53 AM,57.9,37.0,46,30.03,10.0,Variable,3.5,-,N/A,,Scattered Clouds,0,2012-12-15 19:53:00
12:53 PM,59.0,34.0,39,30.02,10.0,Variable,3.5,-,N/A,,Scattered Clouds,0,2012-12-15 20:53:00
1:53 PM,60.1,35.1,39,30.00,10.0,Variable,3.5,-,N/A,,Mostly Cloudy,0,2012-12-15 21:53:00
2:53 PM,59.0,37.0,44,30.01,10.0,West,5.8,-,N/A,,Mostly Cloudy,260,2012-12-15 22:53:00
3:53 PM,57.0,37.0,47,30.01,10.0,SW,6.9,-,N/A,,Mostly Cloudy,230,2012-12-15 23:53:00
4:53 PM,57.0,37.9,49,30.02,10.0,WSW,3.5,-,N/A,,Mostly Cloudy,240,2012-12-16 00:53:00
5:53 PM,55.9,39.0,53,30.02,10.0,Calm,Calm,-,N/A,,Mostly Cloudy,0,2012-12-16 01:53:00
6:53 PM,55.9,39.9,55,30.03,10.0,Calm,Calm,-,N/A,,Mostly Cloudy,0,2012-12-16 02:53:00
7:53 PM,55.0,42.1,62,30.03,10.0,Variable,5.8,-,N/A,,Overcast,0,2012-12-16 03:53:00
8:53 PM,54.0,42.1,64,30.07,10.0,Calm,Calm,-,N/A,,Overcast,0,2012-12-16 04:53:00
9:53 PM,54.0,41.0,62,30.09,10.0,Calm,Calm,-,N/A,,Scattered Clouds,0,2012-12-16 05:53:00
10:53 PM,54.0,42.1,64,30.10,10.0,Calm,Calm,-,N/A,,Mostly Cloudy,0,2012-12-16 06:53:00
11:53 PM,57.0,42.1,57,30.11,10.0,Calm,Calm,-,N/A,,Overcast,0,2012-12-16 07:53:00